EW4565 Weather Reports


Display with metric or nautical units.
time (UTC)temp
F
wind
direction
speed
MPH
gust
MPH
rain 1hr
in
rain 24hr
in
rain mn
in
humidity
%
barometer
mb
20260508191701 68 204 1.0 3.0 0.00 0.00 0.00 49 1011.6
20260508191510 68 206 1.0 4.0 0.00 0.00 0.00 51 1011.6
20260508190659 68 205 1.0 5.0 0.00 0.00 0.00 48 1011.7
20260508190159 68 201 1.0 5.0 0.00 0.00 0.00 48 1011.8
20260508185700 68 195 1.0 4.0 0.00 0.00 0.00 48 1011.9
20260508185159 67 198 1.0 5.0 0.00 0.00 0.00 48 1012.1
20260508184700 67 197 1.0 5.0 0.00 0.00 0.00 48 1012.1
20260508184200 67 206 0.0 2.0 0.00 0.00 0.00 50 1012.3
20260508183703 67 206 0.0 3.0 0.00 0.00 0.00 49 1012.3
20260508183157 66 206 1.0 4.0 0.00 0.00 0.00 50 1012.3
20260508182658 66 213 1.0 4.0 0.00 0.00 0.00 50 1012.3
20260508182157 66 179 0.0 2.0 0.00 0.00 0.00 50 1012.3
20260508181956 65 179 0.0 3.0 0.00 0.00 0.00 50 1012.3
20260508181158 65 179 0.0 3.0 0.00 0.00 0.00 51 1012.4
20260508180958 65 181 0.0 3.0 0.00 0.00 0.00 49 1012.4
20260508180158 65 182 0.0 3.0 0.00 0.00 0.00 49 1012.4
20260508175657 65 182 0.0 3.0 0.00 0.00 0.00 50 1012.4
20260508175157 65 182 1.0 5.0 0.00 0.00 0.00 49 1012.5
20260508174656 64 201 1.0 5.0 0.00 0.00 0.00 49 1012.5
20260508174154 64 222 0.0 3.0 0.00 0.00 0.00 49 1012.5
20260508173657 63 222 0.0 4.0 0.00 0.00 0.00 50 1012.8
20260508173156 63 222 1.0 4.0 0.00 0.00 0.00 49 1012.9
20260508172655 63 228 0.0 4.0 0.00 0.00 0.00 49 1013.0
20260508172154 62 266 0.0 2.0 0.00 0.00 0.00 52 1013.0
20260508171752 62 266 0.0 4.0 0.00 0.00 0.00 53 1013.1
20260508171734 62 266 0.0 2.0 0.00 0.00 0.00 51 1013.1
20260508170654 62 266 0.0 4.0 0.00 0.00 0.00 52 1013.1
20260508170148 62 266 0.0 2.0 0.00 0.00 0.00 52 1013.2
20260508165645 62 266 0.0 2.0 0.00 0.00 0.00 53 1013.2
20260508165146 62 266 0.0 3.0 0.00 0.00 0.00 53 1013.3
20260508164643 62 266 0.0 3.0 0.00 0.00 0.00 52 1013.2
20260508164143 61 268 0.0 2.0 0.00 0.00 0.00 53 1013.3
20260508163643 61 270 1.0 3.0 0.00 0.00 0.00 52 1013.4
20260508163144 61 269 1.0 3.0 0.00 0.00 0.00 53 1013.2
20260508162644 60 274 1.0 3.0 0.00 0.00 0.00 55 1013.3
20260508162141 60 274 0.0 3.0 0.00 0.00 0.00 55 1013.4
20260508161643 60 272 0.0 2.0 0.00 0.00 0.00 57 1013.4
20260508161138 59 271 0.0 3.0 0.00 0.00 0.00 56 1013.4
20260508160638 58 272 0.0 3.0 0.00 0.00 0.00 59 1013.4
20260508160138 58 274 0.0 2.0 0.00 0.00 0.00 59 1013.5
20260508155636 58 274 0.0 4.0 0.00 0.00 0.00 58 1013.5
20260508155138 57 274 1.0 4.0 0.00 0.00 0.00 59 1013.5
20260508154637 57 280 0.0 3.0 0.00 0.00 0.00 60 1013.5
20260508154136 56 279 0.0 2.0 0.00 0.00 0.00 61 1013.5
20260508153640 56 279 0.0 2.0 0.00 0.00 0.00 61 1013.5
20260508153137 56 280 0.0 2.0 0.00 0.00 0.00 62 1013.5
20260508152938 56 280 0.0 2.0 0.00 0.00 0.00 63 1013.5
20260508152138 56 279 0.0 3.0 0.00 0.00 0.00 63 1013.6
20260508151636 56 280 0.0 3.0 0.00 0.00 0.00 63 1013.7
20260508151438 55 285 0.0 3.0 0.00 0.00 0.00 63 1013.6
20260508150636 55 285 0.0 3.0 0.00 0.00 0.00 63 1013.7
20260508150439 54 287 0.0 1.0 0.00 0.00 0.00 66 1013.7
20260508145633 53 287 0.0 1.0 0.00 0.00 0.00 66 1013.7
20260508145131 52 287 0.0 1.0 0.00 0.00 0.00 68 1013.7
20260508144633 52 287 0.0 0.0 0.00 0.00 0.00 68 1013.8
20260508144133 52 287 0.0 0.0 0.00 0.00 0.00 69 1013.7
20260508143633 51 287 0.0 0.0 0.00 0.00 0.00 70 1013.7
20260508143133 51 287 0.0 0.0 0.00 0.00 0.00 72 1013.7
20260508142634 51 287 0.0 0.0 0.00 0.00 0.00 71 1013.7
20260508142130 51 287 0.0 0.0 0.00 0.00 0.00 70 1013.7
20260508141629 50 287 0.0 0.0 0.00 0.00 0.00 72 1013.6
20260508141130 50 287 0.0 0.0 0.00 0.00 0.00 73 1013.7
20260508140629 50 287 0.0 0.0 0.00 0.00 0.00 74 1013.6
20260508140130 50 287 0.0 0.0 0.00 0.00 0.00 74 1013.7
20260508135629 50 287 0.0 0.0 0.00 0.00 0.00 74 1013.6
20260508135130 50 287 0.0 0.0 0.00 0.00 0.00 74 1013.7
20260508134634 50 287 0.0 0.0 0.00 0.00 0.00 74 1013.7
20260508134131 49 287 0.0 0.0 0.00 0.00 0.00 74 1013.8
20260508133636 49 287 0.0 0.0 0.00 0.00 0.00 74 1013.6
20260508133132 49 287 0.0 0.0 0.00 0.00 0.00 73 1013.5
20260508132630 49 287 0.0 0.0 0.00 0.00 0.00 72 1013.5
20260508132129 49 287 0.0 0.0 0.00 0.00 0.00 72 1013.5
20260508131630 49 287 0.0 0.0 0.00 0.00 0.00 74 1013.5
20260508131130 49 287 0.0 0.0 0.00 0.00 0.00 73 1013.5
20260508130932 49 287 0.0 0.0 0.00 0.00 0.00 73 1013.5
20260508130426 49 287 0.0 0.0 0.00 0.00 0.00 72 1013.6
20260508125630 49 287 0.0 0.0 0.00 0.00 0.00 71 1013.6
20260508125427 49 287 0.0 0.0 0.00 0.00 0.00 70 1013.5
20260508124933 49 287 0.0 0.0 0.00 0.00 0.00 72 1013.5
20260508124131 49 287 0.0 0.0 0.00 0.00 0.00 72 1013.5
20260508123630 49 287 0.0 0.0 0.00 0.00 0.00 72 1013.4
20260508123132 49 287 0.0 0.0 0.00 0.00 0.00 72 1013.4
20260508122631 49 287 0.0 0.0 0.00 0.00 0.00 71 1013.4
20260508122130 49 287 0.0 0.0 0.00 0.00 0.00 71 1013.4
20260508121630 49 287 0.0 0.0 0.00 0.00 0.00 69 1013.4
20260508121129 49 287 0.0 0.0 0.00 0.00 0.00 70 1013.4
20260508120631 49 287 0.0 0.0 0.00 0.00 0.00 70 1013.4
20260508120428 49 287 0.0 0.0 0.00 0.00 0.00 69 1013.3
20260508115628 49 287 0.0 0.0 0.00 0.00 0.00 69 1013.4
20260508115130 49 287 0.0 0.0 0.00 0.00 0.00 69 1013.3
20260508114635 50 287 0.0 0.0 0.00 0.00 0.00 70 1013.3
20260508114136 50 287 0.0 0.0 0.00 0.00 0.00 69 1013.3
20260508113631 50 287 0.0 0.0 0.00 0.00 0.00 69 1013.2
20260508113130 50 287 0.0 0.0 0.00 0.00 0.00 68 1013.1
20260508112630 50 287 0.0 0.0 0.00 0.00 0.00 68 1013.1
20260508112130 50 287 0.0 0.0 0.00 0.00 0.00 67 1013.1
20260508111631 51 287 0.0 0.0 0.00 0.00 0.00 67 1013.1
20260508111131 51 287 0.0 0.0 0.00 0.00 0.00 67 1013.0
20260508110630 51 287 0.0 0.0 0.00 0.00 0.00 67 1012.9
20260508110130 51 287 0.0 0.0 0.00 0.00 0.00 66 1013.0
20260508105630 51 287 0.0 0.0 0.00 0.00 0.00 67 1013.0
20260508105130 51 287 0.0 0.0 0.00 0.00 0.00 67 1013.0
20260508104930 51 287 0.0 0.0 0.00 0.00 0.00 67 1013.0
20260508104130 51 287 0.0 0.0 0.00 0.00 0.00 66 1013.0
20260508103931 51 287 0.0 0.0 0.00 0.00 0.00 66 1013.0
20260508103131 52 287 0.0 0.0 0.00 0.00 0.00 64 1012.9
20260508102629 52 287 0.0 0.0 0.00 0.00 0.00 63 1012.9
20260508102129 52 287 0.0 0.0 0.00 0.00 0.00 61 1012.9
20260508101633 52 287 0.0 0.0 0.00 0.00 0.00 61 1012.9
20260508101237 52 287 0.0 0.0 0.00 0.00 0.00 62 1012.6
20260508101214 52 287 0.0 0.0 0.00 0.00 0.00 62 1012.8
20260508100133 52 287 0.0 0.0 0.00 0.00 0.00 62 1012.5
20260508095632 52 287 0.0 0.0 0.00 0.00 0.00 62 1012.5
20260508095422 52 287 0.0 0.0 0.00 0.00 0.00 63 1012.6
20260508094631 52 287 0.0 0.0 0.00 0.00 0.00 63 1012.5
20260508094129 52 287 0.0 0.0 0.00 0.00 0.00 64 1012.5
20260508093629 52 287 0.0 0.0 0.00 0.00 0.00 65 1012.5
20260508093129 52 287 0.0 0.0 0.00 0.00 0.00 63 1012.4
20260508092629 52 287 0.0 0.0 0.00 0.00 0.00 63 1012.4
20260508092219 53 287 0.0 0.0 0.00 0.00 0.00 63 1012.5
20260508091129 53 287 0.0 0.0 0.00 0.00 0.00 63 1012.5
20260508090630 53 287 0.0 0.0 0.00 0.00 0.00 63 1012.6
20260508090129 53 287 0.0 0.0 0.00 0.00 0.00 62 1012.6
20260508085630 53 287 0.0 0.0 0.00 0.00 0.00 63 1012.5
20260508085128 53 287 0.0 0.0 0.00 0.00 0.00 63 1012.4
20260508084629 54 287 0.0 1.0 0.00 0.00 0.00 62 1012.5
20260508084130 54 287 0.0 1.0 0.00 0.00 0.00 61 1012.4
20260508083629 54 287 0.0 0.0 0.00 0.00 0.00 60 1012.5
20260508083449 54 287 0.0 0.0 0.00 0.00 0.00 60 1012.4
20260508083027 54 287 0.0 0.0 0.00 0.00 0.00 58 1012.3
20260508083022 54 287 0.0 0.0 0.00 0.00 0.00 59 1012.3
20260508081630 54 287 0.0 0.0 0.00 0.00 0.00 60 1012.3
20260508081129 54 287 0.0 0.0 0.00 0.00 0.00 59 1012.3
20260508080630 54 287 0.0 0.0 0.00 0.00 0.00 60 1012.3
20260508080129 54 287 0.0 0.0 0.00 0.00 0.00 60 1012.3
20260508075630 55 287 0.0 0.0 0.00 0.00 0.00 59 1012.3
20260508075129 55 287 0.0 0.0 0.00 0.00 0.00 57 1012.2
20260508074632 55 287 0.0 0.0 0.00 0.00 0.00 56 1012.2
20260508074130 55 287 0.0 0.0 0.00 0.00 0.00 54 1012.2
20260508073928 56 287 0.0 0.0 0.00 0.00 0.00 53 1012.1
20260508073130 56 287 0.0 1.0 0.00 0.00 0.00 53 1012.1
20260508072628 56 287 0.0 1.0 0.00 0.00 0.00 52 1012.2
20260508072129 56 287 0.0 0.0 0.00 0.00 0.00 51 1012.2
20260508071631 57 287 0.0 2.0 0.00 0.00 0.00 50 1012.2
20260508071129 57 287 0.0 2.0 0.00 0.00 0.00 50 1012.2
20260508070929 57 287 0.0 3.0 0.00 0.00 0.00 50 1012.1
20260508070129 57 287 0.0 3.0 0.00 0.00 0.00 50 1012.0
20260508065630 57 286 0.0 2.0 0.00 0.00 0.00 50 1012.1
20260508065128 57 285 0.0 1.0 0.00 0.00 0.00 50 1012.0
20260508064629 58 285 0.0 1.0 0.00 0.00 0.00 49 1012.0
20260508064129 58 285 0.0 1.0 0.00 0.00 0.00 49 1011.9
20260508063629 58 285 0.0 2.0 0.00 0.00 0.00 48 1011.9
20260508063130 58 285 0.0 3.0 0.00 0.00 0.00 49 1011.9
20260508062629 58 285 0.0 3.0 0.00 0.00 0.00 49 1011.9
20260508062130 58 285 0.0 1.0 0.00 0.00 0.00 49 1011.9
20260508061630 58 285 0.0 0.0 0.00 0.00 0.00 50 1011.9
20260508061126 58 285 0.0 0.0 0.00 0.00 0.00 49 1011.8
20260508060625 59 285 0.0 0.0 0.00 0.00 0.00 48 1011.8
20260508060418 59 285 0.0 3.0 0.00 0.00 0.00 47 1011.7
20260508055622 59 285 1.0 3.0 0.00 0.00 0.00 47 1011.7
20260508055122 59 284 0.0 3.0 0.00 0.00 0.00 46 1011.7
20260508054616 60 283 1.0 3.0 0.00 0.00 0.00 46 1011.6
20260508054117 60 280 1.0 3.0 0.00 0.00 0.00 46 1011.6
20260508053618 60 280 0.0 2.0 0.00 0.00 0.00 48 1011.6
20260508053112 60 280 0.0 1.0 0.00 0.00 0.00 48 1011.6
20260508052612 60 281 0.0 1.0 0.00 0.00 0.00 48 1011.6
20260508052110 60 280 0.0 0.0 0.00 0.00 0.00 50 1011.5
20260508051608 60 280 0.0 0.0 0.00 0.00 0.00 50 1011.5
20260508051105 61 280 0.0 0.0 0.00 0.00 0.00 50 1011.5
20260508050608 61 280 0.0 2.0 0.00 0.00 0.00 48 1011.4
20260508050105 61 280 0.0 2.0 0.00 0.00 0.00 49 1011.3
20260508045605 61 280 0.0 2.0 0.00 0.00 0.00 49 1011.4
20260508045106 61 280 0.0 2.0 0.00 0.00 0.00 49 1011.3
20260508044605 61 280 0.0 2.0 0.00 0.00 0.00 50 1011.3
20260508044105 61 279 0.0 2.0 0.00 0.00 0.00 51 1011.3
20260508043603 61 278 0.0 2.0 0.00 0.00 0.00 52 1011.3
20260508043105 61 278 0.0 2.0 0.00 0.00 0.00 54 1011.2
20260508042607 61 278 0.0 1.0 0.00 0.00 0.00 55 1011.3
20260508042104 61 278 0.0 1.0 0.00 0.00 0.00 56 1011.3
20260508041605 61 278 0.0 1.0 0.00 0.00 0.00 55 1011.2
20260508041103 61 278 0.0 0.0 0.00 0.00 0.00 56 1011.1
20260508040602 62 278 0.0 2.0 0.00 0.00 0.00 54 1011.1
20260508040356 62 278 0.0 3.0 0.00 0.00 0.00 54 1010.9
20260508035604 63 278 0.0 3.0 0.00 0.00 0.00 53 1010.9
20260508035355 63 276 0.0 2.0 0.00 0.00 0.00 53 1010.9
20260508034606 64 276 0.0 2.0 0.00 0.00 0.00 53 1010.8
20260508034106 64 276 0.0 0.0 0.00 0.00 0.00 50 1010.6
20260508033603 64 276 0.0 0.0 0.00 0.00 0.00 49 1010.5
20260508033105 65 276 0.0 0.0 0.00 0.00 0.00 49 1010.4
20260508032604 65 276 0.0 0.0 0.00 0.00 0.00 49 1010.4
20260508032103 66 276 0.0 0.0 0.00 0.00 0.00 49 1010.4
20260508031603 66 276 0.0 1.0 0.00 0.00 0.00 49 1010.3
20260508031104 67 276 0.0 1.0 0.00 0.00 0.00 48 1010.3
20260508030606 67 276 0.0 1.0 0.00 0.00 0.00 47 1010.2
20260508030409 68 276 0.0 2.0 0.00 0.00 0.00 46 1010.3
20260508025603 69 276 0.0 2.0 0.00 0.00 0.00 45 1010.2
20260508025105 70 276 0.0 1.0 0.00 0.00 0.00 45 1010.2
20260508024605 71 276 0.0 2.0 0.00 0.00 0.00 43 1010.1
20260508024105 72 276 0.0 3.0 0.00 0.00 0.00 42 1010.0
20260508023605 73 276 0.0 3.0 0.00 0.00 0.00 38 1010.0
20260508023105 73 278 0.0 0.0 0.00 0.00 0.00 37 1009.9
20260508022604 74 278 0.0 0.0 0.00 0.00 0.00 38 1009.8
20260508022104 74 278 0.0 1.0 0.00 0.00 0.00 36 1009.8
20260508021724 74 278 0.0 1.0 0.00 0.00 0.00 36 1009.8
20260508021658 74 278 0.0 1.0 0.00 0.00 0.00 36 1009.8
20260508020605 74 278 0.0 1.0 0.00 0.00 0.00 36 1009.8
20260508020105 75 278 0.0 2.0 0.00 0.00 0.00 34 1009.9
20260508015606 75 278 0.0 2.0 0.00 0.00 0.00 33 1009.9
20260508015105 76 278 0.0 3.0 0.00 0.00 0.00 33 1009.9
20260508014604 76 278 0.0 3.0 0.00 0.00 0.00 33 1009.9
20260508014101 76 277 0.0 1.0 0.00 0.00 0.00 32 1009.9
20260508013601 76 278 0.0 2.0 0.00 0.00 0.00 33 1009.9
20260508013102 76 278 0.0 2.0 0.00 0.00 0.00 34 1009.9
20260508012601 76 278 1.0 3.0 0.00 0.00 0.00 34 1009.9
20260508012102 76 278 1.0 3.0 0.00 0.00 0.00 33 1010.0
20260508011905 76 277 1.0 3.0 0.00 0.00 0.00 33 1010.0
20260508011102 76 275 0.0 2.0 0.00 0.00 0.00 34 1009.9
20260508010906 76 276 1.0 3.0 0.00 0.00 0.00 33 1010.0
20260508010239 76 276 1.0 4.0 0.00 0.00 0.00 33 1010.0
20260508010203 76 275 1.0 4.0 0.00 0.00 0.00 32 1009.9
20260508005402 77 259 1.0 4.0 0.00 0.00 0.00 37 1010.1
20260508004607 77 260 0.0 3.0 0.00 0.00 0.00 37 1010.2
20260508004105 76 259 1.0 4.0 0.00 0.00 0.00 37 1010.2
20260508003607 76 259 1.0 4.0 0.00 0.00 0.00 35 1010.2
20260508003103 76 260 0.0 3.0 0.00 0.00 0.00 36 1010.1
20260508002603 76 260 1.0 6.0 0.00 0.00 0.00 35 1010.2
20260508002105 76 260 1.0 6.0 0.00 0.00 0.00 34 1010.2
20260508001909 76 260 1.0 5.0 0.00 0.00 0.00 34 1010.2
20260508001406 76 233 1.0 5.0 0.00 0.00 0.00 35 1010.2
20260508000602 76 237 1.0 5.0 0.00 0.00 0.00 35 1010.2
20260508000103 76 189 1.0 4.0 0.00 0.00 0.00 37 1010.1
20260507235602 76 259 1.0 3.0 0.00 0.00 0.00 37 1010.1
20260507235102 76 259 1.0 4.0 0.00 0.00 0.00 38 1010.2
20260507234603 76 260 1.0 6.0 0.00 0.00 0.00 36 1010.1
20260507234102 76 260 1.0 6.0 0.00 0.00 0.00 39 1010.1
20260507233602 76 249 1.0 5.0 0.00 0.00 0.00 39 1010.1
20260507233101 76 237 1.0 4.0 0.00 0.00 0.00 38 1010.1
20260507232601 76 245 1.0 4.0 0.00 0.00 0.00 40 1010.0
20260507232103 76 245 1.0 4.0 0.00 0.00 0.00 40 1010.1
20260507231605 77 237 1.0 4.0 0.00 0.00 0.00 41 1010.2
20260507231104 76 228 1.0 4.0 0.00 0.00 0.00 40 1010.1
20260507230856 76 224 1.0 4.0 0.00 0.00 0.00 42 1010.2
20260507230104 76 222 1.0 4.0 0.00 0.00 0.00 41 1010.2
20260507225604 76 204 1.0 4.0 0.00 0.00 0.00 42 1010.3
20260507225104 76 274 1.0 4.0 0.00 0.00 0.00 44 1010.4
20260507224606 76 256 0.0 2.0 0.00 0.00 0.00 42 1010.5
20260507224106 75 258 0.0 6.0 0.00 0.00 0.00 42 1010.6
20260507223604 75 258 1.0 6.0 0.00 0.00 0.00 43 1010.6
20260507223104 74 268 1.0 6.0 0.00 0.00 0.00 44 1010.7
20260507222607 74 270 1.0 6.0 0.00 0.00 0.00 44 1010.8
20260507222411 74 261 1.0 4.0 0.00 0.00 0.00 43 1010.8
20260507221603 74 255 1.0 5.0 0.00 0.00 0.00 44 1010.9
20260507221105 74 276 1.0 5.0 0.00 0.00 0.00 43 1011.1
20260507221013 74 268 1.0 6.0 0.00 0.00 0.00 44 1011.2
20260507221009 74 197 1.0 4.0 0.00 0.00 0.00 44 1011.1
20260507215900 73 278 1.0 7.0 0.00 0.00 0.00 46 1011.2
20260507215404 73 281 1.0 7.0 0.00 0.00 0.00 44 1011.2
20260507214601 73 253 1.0 7.0 0.00 0.00 0.00 45 1011.2
20260507214104 74 231 2.0 7.0 0.00 0.00 0.00 44 1011.3
20260507213602 74 280 1.0 7.0 0.00 0.00 0.00 46 1011.3
20260507213102 73 289 1.0 7.0 0.00 0.00 0.00 46 1011.4
20260507212601 73 294 1.0 7.0 0.00 0.00 0.00 47 1011.4
20260507212101 73 268 2.0 6.0 0.00 0.00 0.00 47 1011.5
20260507211603 72 270 2.0 6.0 0.00 0.00 0.00 48 1011.6
20260507211101 72 271 2.0 6.0 0.00 0.00 0.00 49 1011.6
20260507210901 72 258 1.0 6.0 0.00 0.00 0.00 48 1011.7
20260507205900 72 262 0.0 2.0 0.00 0.00 0.00 50 1011.6
20260507205102 71 262 1.0 4.0 0.00 0.00 0.00 51 1011.8
20260507204603 71 262 2.0 6.0 0.00 0.00 0.00 51 1011.9
20260507204101 71 268 1.0 6.0 0.00 0.00 0.00 51 1011.9
20260507203602 71 253 1.0 4.0 0.00 0.00 0.00 54 1011.9
20260507203101 71 247 1.0 4.0 0.00 0.00 0.00 53 1011.9
20260507202703 70 249 1.0 4.0 0.00 0.00 0.00 52 1012.0
20260507202642 71 253 1.0 4.0 0.00 0.00 0.00 52 1012.0
20260507201602 70 248 1.0 6.0 0.00 0.00 0.00 51 1012.0
20260507201103 70 253 2.0 6.0 0.00 0.00 0.00 52 1012.0
20260507200601 71 248 1.0 4.0 0.00 0.00 0.00 52 1012.0
20260507200101 71 261 1.0 5.0 0.00 0.00 0.00 53 1012.1
20260507195601 70 166 1.0 5.0 0.00 0.00 0.00 53 1012.0
20260507195101 70 164 1.0 4.0 0.00 0.00 0.00 55 1012.1
20260507194604 69 165 1.0 4.0 0.00 0.00 0.00 54 1012.1
20260507194118 69 164 0.0 4.0 0.00 0.00 0.00 54 1012.0
20260507193607 69 163 1.0 6.0 0.00 0.00 0.00 52 1012.1
20260507193106 69 164 1.0 6.0 0.00 0.00 0.00 52 1012.1
20260507192604 69 179 1.0 5.0 0.00 0.00 0.00 54 1012.1